Change the Weather History Date:

Sunday, April 6, 2014

  Actual Average Record
Temperature  
Mean Temperature 43 °F -  
Max Temperature 59 °F 55 °F 66 °F (1999)
Min Temperature 27 °F 39 °F 27 °F (2014)
Degree Days  
Heating Degree Days 22    
Moisture  
Dew Point 24 °F    
Average Humidity 52    
Maximum Humidity 82    
Minimum Humidity 20    
Precipitation  
Precipitation 0.00 in - - ()
Sea Level Pressure  
Sea Level Pressure 30.18 in    
Wind  
Wind Speed 4 mph (WNW)    
Max Wind Speed 12 mph    
Max Gust Speed -    
Averages and records for this station are not official NWS values.
T = Trace of Precipitation, MM = Missing Value Source: NWS Daily Summary

Daily Weather History Graph

Daily Weather History Graph

Search for Another Location

Airport or City:

Trip Planner

Search our weather history database for the weather conditions in past years. The results will help you decide how hot, cold, wet, or windy it might be!

Date:

Astronomy

Apr. 06, 2014 Rise Set
Actual Time 6:33 AM EDT 7:26 PM EDT
Civil Twilight 6:05 AM EDT 7:54 PM EDT
Nautical Twilight 5:33 AM EDT 8:27 PM EDT
Astronomical Twilight 4:59 AM EDT 9:01 PM EDT
Moon 11:32 AM EDT (4/6) 1:20 AM EDT (4/6)
Length of Visible Light 13h 48m
Length of Day
12h 53m
Waxing Crescent, 43% of the Moon is Illuminated
Apr 6
Waxing Crescent
Apr 7
First Quarter
Apr 15
Full
Apr 22
Last Quarter
Apr 29
New

Hourly Weather History & Observations

Time (EDT) Temp. Windchill Dew Point Humidity Pressure Visibility Wind Dir Wind Speed Gust Speed Precip Events Conditions
1:00 AM 36.0 °F 31.1 °F 26.1 °F 67% 30.10 in - WNW 5.8 mph - N/A   Clear
2:00 AM 34.0 °F 31.0 °F 25.0 °F 70% 30.11 in - NW 3.5 mph - N/A   Clear
3:00 AM 35.1 °F 32.2 °F 25.0 °F 67% 30.12 in - NW 3.5 mph - N/A   Clear
4:00 AM 30.0 °F - 23.0 °F 75% 30.14 in - Calm Calm - N/A   Clear
5:00 AM 30.0 °F - 23.0 °F 75% 30.15 in - Calm Calm - N/A   Clear
6:00 AM 27.0 °F - 21.0 °F 78% 30.17 in - Calm Calm - N/A   Clear
7:00 AM 30.9 °F - 21.9 °F 69% 30.19 in - Calm Calm - N/A   Clear
8:00 AM 36.0 °F 30.3 °F 23.0 °F 59% 30.20 in - NW 6.9 mph - N/A   Clear
9:00 AM 41.0 °F 36.4 °F 21.9 °F 47% 30.21 in - North 6.9 mph - N/A   Clear
10:00 AM 44.1 °F 40.1 °F 19.9 °F 38% 30.22 in - North 6.9 mph - N/A   Clear
11:00 AM 46.9 °F - 18.0 °F 32% 30.21 in - NNE 8.1 mph - N/A   Clear
12:00 PM 48.9 °F - 19.0 °F 31% 30.20 in - North 6.9 mph - N/A   Clear
1:00 PM 52.0 °F - 19.0 °F 27% 30.20 in - Variable 3.5 mph - N/A   Clear
2:00 PM 54.0 °F - 18.0 °F 24% 30.20 in - Variable 5.8 mph - N/A   Clear
3:00 PM 55.9 °F - 18.0 °F 23% 30.18 in - Variable 3.5 mph - N/A   Clear
4:00 PM 59.0 °F - 18.0 °F 20% 30.16 in - West 6.9 mph - N/A   Clear
5:00 PM 57.9 °F - 18.0 °F 21% 30.14 in - Calm Calm - N/A   Clear
5:45 PM 55.4 °F - 28.4 °F 36% 30.14 in - SE 8.1 mph - N/A   Scattered Clouds
6:00 PM 54.0 °F - 30.0 °F 40% 30.14 in - SSE 11.5 mph - N/A   Partly Cloudy
7:00 PM 48.9 °F - 30.9 °F 50% 30.16 in - SE 9.2 mph - N/A   Clear
8:00 PM 44.1 °F 39.5 °F 30.9 °F 60% 30.21 in - South 8.1 mph - N/A   Clear
10:00 PM 37.9 °F 34.4 °F 30.9 °F 76% 30.22 in - South 4.6 mph - N/A   Clear
11:00 PM 36.0 °F 32.1 °F 30.9 °F 82% 30.22 in - SSE 4.6 mph - N/A   Clear
11:44 PM 35.6 °F - 30.2 °F 81% 30.22 in - Calm Calm - N/A   Partly Cloudy